Powrót do katalogu

DELTA 1 DEB

AktywnyLEO
NORAD 29186·DEBRIS·🇺🇸 United States

Wystrzelony Jan 11, 1968 z Vandenberg Space Force Base

Loading…

Następne Przeloty (najbliższe 24 godziny)

TLE

Starzejące sięSource: Space-Track

Epoka: Sep 10, 2026, 10:52 UTC

1 29186U 68002K   26253.45304721  .00000019  00000-0  28549-3 0  9997
2 29186 105.8024 112.9351 0310209  18.4632 101.0709 12.93094335 15169

Śledź DELTA 1 DEB w czasie rzeczywistym z AllMySat

Download on the App Store